Torna al catalogo

COSMOS 574

AttivoMilitarePO
NORAD 6707·PAYLOAD·🇷🇺 Russia

Lanciato Jun 20, 1973 da Plesetsk Cosmodrome

Loading…

Prossimi Passaggi (prossime 24 ore)

TLE

AggiornatoSource: Space-Track

Epoca: Sep 14, 2026, 10:34 UTC

1 06707U 73042A   26257.44039044  .00000058  00000-0  46767-4 0  9993
2 06707  82.9491 127.9838 0021483   3.6729 170.8135 13.72429366102919

Traccia COSMOS 574 in tempo reale con AllMySat

Download on the App Store